| time (UTC) | temp C | wind direction | speed KPH | gust KPH | rain 1hr cm | rain 24hr cm | rain mn cm | humidity % | barometer mb |
| 20260505041737 | 13 | 349 | 0.0 | 321.9 | 0.00 | 0.00 | 0.00 | 59 | 115.8 |
| 20260505040721 | 13 | 354 | 0.0 | 321.9 | 0.00 | 0.00 | 0.00 | 59 | 115.9 |
| 20260505040220 | 14 | 351 | 0.0 | 321.9 | 0.00 | 0.00 | 0.00 | 57 | 115.8 |
| 20260505035720 | 14 | 346 | 0.0 | 321.9 | 0.00 | 0.00 | 0.00 | 56 | 115.7 |
| 20260505035219 | 14 | 340 | 0.0 | 321.9 | 0.00 | 0.00 | 0.00 | 54 | 115.5 |
| 20260505034203 | 14 | 327 | 0.0 | 321.9 | 0.00 | 0.00 | 0.00 | 53 | 115.2 |
| 20260505033703 | 13 | 322 | 0.0 | 321.9 | 0.00 | 0.00 | 0.00 | 53 | 115.2 |
| 20260505033202 | 13 | 316 | 0.0 | 321.9 | 0.00 | 0.00 | 0.00 | 53 | 115.0 |
| 20260505032701 | 13 | 310 | 0.0 | 321.9 | 0.00 | 0.00 | 0.00 | 53 | 114.9 |
| 20260505032200 | 13 | 304 | 0.0 | 321.9 | 0.00 | 0.00 | 0.00 | 54 | 114.8 |
| 20260505031659 | 13 | 298 | 0.0 | 321.9 | 0.00 | 0.00 | 0.00 | 56 | 114.6 |
| 20260505031158 | 13 | 293 | 0.0 | 321.9 | 0.00 | 0.00 | 0.00 | 56 | 114.5 |
| 20260505030657 | 12 | 290 | 0.0 | 321.9 | 0.00 | 0.00 | 0.00 | 57 | 114.4 |
| 20260505024609 | 12 | 315 | 0.0 | 321.9 | 0.00 | 0.00 | 0.00 | 62 | 115.0 |
| 20260505023552 | 13 | 333 | 0.0 | 321.9 | 0.00 | 0.00 | 0.00 | 59 | 115.4 |
| 20260505022535 | 13 | 326 | 0.0 | 321.9 | 0.00 | 0.00 | 0.00 | 54 | 115.2 |
| 20260505022034 | 13 | 324 | 0.0 | 321.9 | 0.00 | 0.00 | 0.00 | 53 | 115.2 |
| 20260505021533 | 13 | 323 | 0.0 | 321.9 | 0.00 | 0.00 | 0.00 | 54 | 115.2 |
| 20260505021032 | 13 | 323 | 0.0 | 321.9 | 0.00 | 0.00 | 0.00 | 56 | 115.2 |
| 20260505020531 | 13 | 322 | 0.0 | 321.9 | 0.00 | 0.00 | 0.00 | 56 | 115.2 |
| 20260505020030 | 13 | 323 | 0.0 | 321.9 | 0.00 | 0.00 | 0.00 | 56 | 115.2 |
| 20260505015530 | 13 | 320 | 0.0 | 321.9 | 0.00 | 0.00 | 0.00 | 56 | 115.1 |
| 20260505015029 | 13 | 317 | 0.0 | 321.9 | 0.00 | 0.00 | 0.00 | 56 | 115.1 |
| 20260505014529 | 13 | 314 | 0.0 | 321.9 | 0.00 | 0.00 | 0.00 | 56 | 115.0 |
| 20260505014028 | 13 | 311 | 0.0 | 321.9 | 0.00 | 0.00 | 0.00 | 56 | 114.9 |
| 20260505013527 | 12 | 310 | 0.0 | 321.9 | 0.00 | 0.00 | 0.00 | 56 | 114.9 |
| 20260505012510 | 12 | 307 | 0.0 | 321.9 | 0.00 | 0.00 | 0.00 | 57 | 114.8 |
| 20260505012010 | 13 | 303 | 0.0 | 321.9 | 0.00 | 0.00 | 0.00 | 56 | 114.7 |
| 20260505011510 | 13 | 301 | 0.0 | 321.9 | 0.00 | 0.00 | 0.00 | 55 | 114.7 |
| 20260505011010 | 12 | 301 | 0.0 | 321.9 | 0.00 | 0.00 | 0.00 | 56 | 114.7 |
| 20260505010509 | 12 | 302 | 0.0 | 321.9 | 0.00 | 0.00 | 0.00 | 58 | 114.8 |
| 20260505010008 | 12 | 303 | 0.0 | 321.9 | 0.00 | 0.00 | 0.00 | 59 | 114.8 |
| 20260505005507 | 12 | 305 | 0.0 | 321.9 | 0.00 | 0.00 | 0.00 | 60 | 114.8 |
| 20260505005007 | 12 | 308 | 0.0 | 321.9 | 0.00 | 0.00 | 0.00 | 60 | 114.9 |
| 20260505003951 | 12 | 313 | 0.0 | 321.9 | 0.00 | 0.00 | 0.00 | 58 | 115.0 |
| 20260505003450 | 12 | 315 | 0.0 | 321.9 | 0.00 | 0.00 | 0.00 | 57 | 115.0 |
| 20260505002949 | 12 | 317 | 0.0 | 321.9 | 0.00 | 0.00 | 0.00 | 56 | 115.1 |
| 20260505002448 | 12 | 318 | 0.0 | 321.9 | 0.00 | 0.00 | 0.00 | 57 | 115.1 |
| 20260505001947 | 12 | 320 | 0.0 | 321.9 | 0.00 | 0.00 | 0.00 | 56 | 115.2 |
| 20260505001446 | 13 | 320 | 0.0 | 321.9 | 0.00 | 0.00 | 0.00 | 54 | 115.1 |
| 20260505000945 | 13 | 317 | 0.0 | 321.9 | 0.00 | 0.00 | 0.00 | 54 | 115.1 |
| 20260505000445 | 13 | 318 | 0.0 | 321.9 | 0.00 | 0.00 | 0.00 | 54 | 115.1 |
| 20260504235944 | 13 | 318 | 0.0 | 321.9 | 0.00 | 0.00 | 0.00 | 54 | 115.1 |
| 20260504235443 | 13 | 316 | 0.0 | 321.9 | 0.00 | 0.00 | 0.00 | 55 | 115.1 |
| 20260504234942 | 13 | 314 | 0.0 | 321.9 | 0.00 | 0.00 | 0.00 | 55 | 115.0 |
| 20260504234441 | 12 | 314 | 0.0 | 321.9 | 0.00 | 0.00 | 0.00 | 55 | 115.1 |
| 20260504233941 | 12 | 315 | 0.0 | 321.9 | 0.00 | 0.00 | 0.00 | 56 | 115.0 |
| 20260504233440 | 12 | 317 | 0.0 | 321.9 | 0.00 | 0.00 | 0.00 | 56 | 115.1 |
| 20260504232939 | 12 | 322 | 0.0 | 321.9 | 0.00 | 0.00 | 0.00 | 57 | 115.1 |
| 20260504232438 | 12 | 329 | 0.0 | 321.9 | 0.00 | 0.00 | 0.00 | 57 | 115.3 |
| 20260504230905 | 13 | 353 | 0.0 | 321.9 | 0.00 | 0.00 | 0.00 | 57 | 115.8 |
| 20260504230404 | 13 | 355 | 0.0 | 321.9 | 0.00 | 0.00 | 0.00 | 55 | 115.9 |
| 20260504225904 | 14 | 353 | 0.0 | 321.9 | 0.00 | 0.00 | 0.00 | 53 | 115.8 |
| 20260504225403 | 15 | 351 | 0.0 | 321.9 | 0.00 | 0.00 | 0.00 | 51 | 115.8 |
| 20260504224902 | 15 | 347 | 0.0 | 321.9 | 0.00 | 0.00 | 0.00 | 49 | 115.7 |
| 20260504224401 | 15 | 343 | 0.0 | 321.9 | 0.00 | 0.00 | 0.00 | 50 | 115.7 |
| 20260504223344 | 14 | 341 | 0.0 | 321.9 | 0.00 | 0.00 | 0.00 | 52 | 115.6 |
| 20260504222327 | 13 | 342 | 0.0 | 321.9 | 0.00 | 0.00 | 0.00 | 52 | 115.6 |
| 20260504221826 | 13 | 345 | 0.0 | 321.9 | 0.00 | 0.00 | 0.00 | 53 | 115.6 |
| 20260504221325 | 13 | 347 | 0.0 | 321.9 | 0.00 | 0.00 | 0.00 | 54 | 115.7 |
| 20260504220824 | 13 | 348 | 0.0 | 321.9 | 0.00 | 0.00 | 0.00 | 53 | 115.8 |
| 20260504220323 | 13 | 348 | 0.0 | 321.9 | 0.00 | 0.00 | 0.00 | 52 | 115.8 |
| 20260504215822 | 13 | 349 | 0.0 | 321.9 | 0.00 | 0.00 | 0.00 | 52 | 115.8 |
| 20260504215321 | 13 | 349 | 0.0 | 321.9 | 0.00 | 0.00 | 0.00 | 51 | 115.8 |
| 20260504214305 | 13 | 355 | 0.0 | 321.9 | 0.00 | 0.00 | 0.00 | 51 | 115.9 |
| 20260504213249 | 13 | 359 | 0.0 | 321.9 | 0.00 | 0.00 | 0.00 | 53 | 116.0 |
| 20260504212748 | 13 | 1 | 0.0 | 321.9 | 0.00 | 0.00 | 0.00 | 52 | 116.0 |
| 20260504212247 | 14 | 2 | 0.0 | 321.9 | 0.00 | 0.00 | 0.00 | 52 | 116.1 |
| 20260504211746 | 14 | 2 | 0.0 | 321.9 | 0.00 | 0.00 | 0.00 | 50 | 116.1 |
| 20260504211245 | 14 | 1 | 0.0 | 321.9 | 0.00 | 0.00 | 0.00 | 50 | 116.1 |
| 20260504210744 | 15 | 359 | 0.0 | 321.9 | 0.00 | 0.00 | 0.00 | 50 | 116.0 |
| 20260504210243 | 14 | 359 | 0.0 | 321.9 | 0.00 | 0.00 | 0.00 | 50 | 116.0 |
| 20260504205742 | 14 | 2 | 0.0 | 321.9 | 0.00 | 0.00 | 0.00 | 51 | 116.0 |
| 20260504205242 | 13 | 4 | 0.0 | 321.9 | 0.00 | 0.00 | 0.00 | 52 | 116.1 |
| 20260504204741 | 14 | 7 | 0.0 | 321.9 | 0.00 | 0.00 | 0.00 | 51 | 116.2 |
| 20260504204241 | 14 | 10 | 0.0 | 321.9 | 0.00 | 0.00 | 0.00 | 51 | 116.2 |
| 20260504203740 | 14 | 12 | 0.0 | 321.9 | 0.00 | 0.00 | 0.00 | 51 | 116.3 |
| 20260504203239 | 14 | 14 | 0.0 | 321.9 | 0.00 | 0.00 | 0.00 | 51 | 116.3 |
| 20260504202739 | 14 | 15 | 0.0 | 321.9 | 0.00 | 0.00 | 0.00 | 50 | 116.4 |
| 20260504202238 | 14 | 16 | 0.0 | 321.9 | 0.00 | 0.00 | 0.00 | 49 | 116.4 |
| 20260504201737 | 14 | 17 | 0.0 | 321.9 | 0.00 | 0.00 | 0.00 | 50 | 116.4 |
| 20260504200720 | 14 | 18 | 0.0 | 321.9 | 0.00 | 0.00 | 0.00 | 51 | 116.4 |
| 20260504200219 | 14 | 20 | 0.0 | 321.9 | 0.00 | 0.00 | 0.00 | 52 | 116.4 |
| 20260504195719 | 15 | 21 | 0.0 | 321.9 | 0.00 | 0.00 | 0.00 | 51 | 116.5 |
| 20260504195218 | 15 | 22 | 0.0 | 321.9 | 0.00 | 0.00 | 0.00 | 52 | 116.5 |
| 20260504194201 | 15 | 24 | 0.0 | 321.9 | 0.00 | 0.00 | 0.00 | 51 | 116.5 |
| 20260504193700 | 15 | 25 | 0.0 | 321.9 | 0.00 | 0.00 | 0.00 | 50 | 116.6 |
| 20260504193159 | 15 | 25 | 0.0 | 321.9 | 0.00 | 0.00 | 0.00 | 50 | 116.6 |
| 20260504192658 | 15 | 24 | 0.0 | 321.9 | 0.00 | 0.00 | 0.00 | 49 | 116.5 |
| 20260504192157 | 15 | 24 | 0.0 | 321.9 | 0.00 | 0.00 | 0.00 | 49 | 116.5 |
| 20260504191656 | 15 | 22 | 0.0 | 321.9 | 0.00 | 0.00 | 0.00 | 49 | 116.5 |
| 20260504191155 | 15 | 21 | 0.0 | 321.9 | 0.00 | 0.00 | 0.00 | 50 | 116.5 |
| 20260504190654 | 15 | 20 | 0.0 | 321.9 | 0.00 | 0.00 | 0.00 | 50 | 116.5 |
| 20260504190153 | 15 | 18 | 0.0 | 321.9 | 0.00 | 0.00 | 0.00 | 51 | 116.4 |
| 20260504185652 | 15 | 17 | 0.0 | 321.9 | 0.00 | 0.00 | 0.00 | 52 | 116.4 |
| 20260504185151 | 15 | 16 | 0.0 | 321.9 | 0.00 | 0.00 | 0.00 | 51 | 116.4 |
| 20260504184650 | 15 | 15 | 0.0 | 321.9 | 0.00 | 0.00 | 0.00 | 51 | 116.3 |
| 20260504184149 | 15 | 14 | 0.0 | 321.9 | 0.00 | 0.00 | 0.00 | 52 | 116.3 |
| 20260504183648 | 15 | 13 | 0.0 | 321.9 | 0.00 | 0.00 | 0.00 | 53 | 116.2 |
| 20260504183147 | 15 | 13 | 0.0 | 321.9 | 0.00 | 0.00 | 0.00 | 54 | 116.3 |
| 20260504182130 | 15 | 16 | 0.0 | 321.9 | 0.00 | 0.00 | 0.00 | 57 | 116.3 |
| 20260504181630 | 15 | 18 | 0.0 | 321.9 | 0.00 | 0.00 | 0.00 | 58 | 116.3 |
| 20260504181129 | 15 | 21 | 0.0 | 321.9 | 0.00 | 0.00 | 0.00 | 59 | 116.4 |
| 20260504180628 | 15 | 24 | 0.0 | 321.9 | 0.00 | 0.00 | 0.00 | 56 | 116.4 |
| 20260504180127 | 15 | 27 | 0.0 | 321.9 | 0.00 | 0.00 | 0.00 | 58 | 116.5 |
| 20260504175627 | 15 | 32 | 0.0 | 321.9 | 0.00 | 0.00 | 0.00 | 56 | 116.7 |
| 20260504174610 | 15 | 53 | 0.0 | 321.9 | 0.00 | 0.00 | 0.00 | 57 | 117.1 |
| 20260504173555 | 16 | 91 | 0.0 | 321.9 | 0.00 | 0.00 | 0.00 | 56 | 118.0 |
| 20260504172023 | 16 | 169 | 0.0 | 321.9 | 0.00 | 0.00 | 0.00 | 56 | 119.6 |
| 20260504171521 | 16 | 199 | 0.0 | 321.9 | 0.00 | 0.00 | 0.00 | 55 | 120.3 |
| 20260504171020 | 17 | 230 | 0.0 | 321.9 | 0.00 | 0.00 | 0.00 | 53 | 120.9 |
| 20260504170521 | 17 | 255 | 0.0 | 321.9 | 0.00 | 0.00 | 0.00 | 51 | 121.4 |
| 20260504160440 | 21 | 311 | 0.0 | 321.9 | 0.00 | 0.00 | 0.00 | 43 | 122.7 |
| 20260504150331 | 20 | 292 | 0.0 | 321.9 | 0.00 | 0.00 | 0.00 | 39 | 122.3 |
| 20260504141321 | 21 | 283 | 0.0 | 321.9 | 0.00 | 0.00 | 0.00 | 34 | 122.3 |
| 20260504140821 | 21 | 275 | 0.0 | 321.9 | 0.00 | 0.00 | 0.00 | 33 | 122.1 |
| 20260504140319 | 20 | 270 | 0.0 | 321.9 | 0.00 | 0.00 | 0.00 | 37 | 122.0 |
| 20260504130755 | 20 | 253 | 0.0 | 321.9 | 0.00 | 0.00 | 0.00 | 37 | 121.6 |
| 20260504130254 | 20 | 252 | 0.0 | 321.9 | 0.00 | 0.00 | 0.00 | 38 | 121.7 |
| 20260504120215 | 19 | 209 | 0.0 | 321.9 | 0.00 | 0.00 | 0.00 | 40 | 120.8 |
| 20260504110106 | 18 | 189 | 0.0 | 321.9 | 0.00 | 0.00 | 0.00 | 44 | 120.5 |
| 20260504100543 | 17 | 124 | 0.0 | 321.9 | 0.00 | 0.00 | 0.00 | 41 | 119.1 |
| 20260504081939 | 15 | 82 | 0.0 | 321.9 | 0.00 | 0.00 | 0.00 | 43 | 118.5 |
| 20260504081438 | 15 | 72 | 0.0 | 321.9 | 0.00 | 0.00 | 0.00 | 45 | 118.4 |
| 20260504080421 | 15 | 54 | 0.0 | 321.9 | 0.00 | 0.00 | 0.00 | 43 | 118.0 |
| 20260504070342 | 12 | 341 | 0.0 | 321.9 | 0.00 | 0.00 | 0.00 | 56 | 116.4 |
| 20260504050224 | 10 | 210 | 0.0 | 321.9 | 0.00 | 0.00 | 0.00 | 66 | 112.6 |
| 20260504045723 | 10 | 205 | 0.0 | 321.9 | 0.00 | 0.00 | 0.00 | 70 | 112.5 |